Flag for U.S.A. Weather past 2 weeks in Alexandria, Virginia, U.S.A.

Now
77 °F

Mostly cloudy.


Feels Like: 79 °F
Forecast: 67 / 89 °F
Wind: 8 mph from South

Location: Reagan National Airport

Current Time: Aug 30, 2015 at 12:44:10 PM

Latest Report: Aug 30, 2015 at 11:52 AM


Visibility: 10 mi

Pressure: 30.14 "Hg

Humidity: 71%

Dew point: 67 °F

Location of AlexandriaLocation

Historic Weather in Alexandria — Graph

°F

Alexandria temperature yesterday

Maximum temperature yesterday: 88 °F (at 3:52 PM)
Minimum temperature yesterday: 67 °F (at 5:52 AM)
Average temperature yesterday: 78 °F

Past Weeks' High & Low Weather Summary

 TemperatureHumidityPressure
High95 °F (Aug 17, 1:52 PM)94% (Aug 20, 4:52 AM)30.22 "Hg (Aug 20, 4:52 AM)
Low63 °F (Aug 27, 5:52 AM)29% (Aug 16, 3:52 PM)29.81 "Hg (Aug 24, 5:52 PM)
Average78 °F63%30.04 "Hg
* Reported Aug 15 10:52 AM — Aug 30 10:52 AM, Alexandria, Weather by CustomWeather, © 2015

Note: Actual official high and low records may vary slightly from our data, if they occured in-between our weather recording intervals... More about our weather records

Advertising

Alexandria weather history for previous 24 hours

 ConditionsComfort  
Time TempWeatherWind HumidityBarometerVisibility
10:52 AM
Sun, Aug 30
76 °FMostly cloudy.6 mph69%30.14 "Hg10 mi
9:52 AM74 °FMostly cloudy.5 mph71%30.14 "Hg10 mi
8:52 AM73 °FMore clouds than sun.7 mph74%30.13 "Hg10 mi
7:52 AM71 °FBroken clouds.8 mph78%30.13 "Hg10 mi
6:52 AM69 °FPassing clouds.5 mph84%30.12 "Hg10 mi
5:52 AM69 °FPassing clouds.5 mph84%30.11 "Hg10 mi
4:52 AM70 °FPassing clouds.7 mph81%30.10 "Hg10 mi
3:52 AM71 °FPassing clouds.9 mph78%30.10 "Hg10 mi
2:52 AM71 °FPassing clouds.9 mph78%30.10 "Hg10 mi
1:52 AM72 °FPassing clouds.8 mph76%30.11 "Hg10 mi
12:52 AM74 °FPassing clouds.12 mph71%30.12 "Hg10 mi
11:52 PM
Sat, Aug 29
74 °FPassing clouds.14 mph71%30.13 "Hg10 mi
10:52 PM75 °FPassing clouds.10 mph74%30.13 "Hg10 mi
9:52 PM77 °FPassing clouds.14 mph69%30.12 "Hg10 mi
8:52 PM79 °FHigh level clouds.10 mph62%30.11 "Hg10 mi
7:52 PM81 °FOvercast.12 mph60%30.10 "Hg10 mi
6:52 PM83 °FPartly sunny.10 mph55%30.10 "Hg10 mi
5:52 PM85 °FPartly sunny.14 mph51%30.10 "Hg10 mi
4:52 PM88 °FBroken clouds.12 mph45%30.11 "Hg10 mi
3:52 PM88 °FPartly sunny.8 mph42%30.12 "Hg10 mi
2:52 PM87 °FPartly sunny.9 mph43%30.14 "Hg10 mi
1:52 PM87 °FPartly sunny.13 mph43%30.16 "Hg10 mi
12:52 PM85 °FPartly sunny.13 mph46%30.18 "Hg10 mi
Weather by CustomWeather, © 2015

See weather overviewHow to use our weather pages